AirNav   Everest Fuels
 
 335 users online  

MU01 Dogwood Canyon Heliport
Blue Eye, Missouri, USA

GOING TO BLUE EYE?


FAA INFORMATION EFFECTIVE 21 MAY 2020

Location

FAA Identifier: MU01
Lat/Long: 36-29-57.2360N 093-27-30.6690W
36-29.953933N 093-27.511150W
36.4992322,-93.4585192
(estimated)
Elevation: 1240 ft. / 378 m (estimated)
Variation: 04E (1990)
From city: 7 miles W of BLUE EYE, MO
Time zone: UTC -5 (UTC -6 during Standard Time)
Zip code: 65681

Heliport Operations

Heliport use: Private use. Permission required prior to landing
Activation date: 10/1993
Control tower: no
ARTCC: KANSAS CITY CENTER
FSS: COLUMBIA FLIGHT SERVICE STATION
Attendance: UNATNDD
Segmented circle: no

Heliport Communications

WX AWOS-3 at FWB (12 nm N): 119.725 (417-272-3922)
WX AWOS-3 at BBG (13 nm E): 124.625 (417-334-0218)

Nearby radio navigation aids

VOR radial/distance  VOR name  Freq  Var
HROr309/16.1HARRISON VOR/DME112.5004E
RZCr061/35.4RAZORBACK VORTAC116.4004E

Heliport Services

Runway Information

Helipad H1

Dimensions: 60 x 60 ft. / 18 x 18 m
Surface: turf
Traffic pattern: leftleft

Heliport Ownership and Management from official FAA records

Ownership: Privately-owned
Owner: FINLEY RIVER PROPERTIES, INC.
1935 S CAMPBELL
SPRINGFIELD, MO 65898
Phone 417-887-1915
Manager: SUSIE HENRY
1935 S CAMPBELL
SPRINGFIELD, MO 65898
Phone 417-887-1915

Additional Remarks

FOR CD CTC SPRINGFIELD APCH AT 417-868-5620/5619.

Instrument Procedures

There are no published instrument procedures at MU01.

Some nearby airports with instrument procedures:

4M1 - Carroll County Airport (11 nm SW)
KFWB - Branson West Municipal Airport - Emerson Field (12 nm N)
KBBG - Branson Airport (13 nm E)
KPLK - M Graham Clark Downtown Airport (13 nm NE)
KHRO - Boone County Airport (20 nm SE)
 
Loc | Ops | Rwys | IFR | FBO | Links
Com | Nav | Svcs | Stats | Notes

Branson Jet Center
AirBoss

 
Area around MU01 (Dogwood Canyon Heliport)
 
Road maps at: MapQuest Bing Google
 
Aerial photo
No photo
 
Sectional chart

 
Airport distance calculator
Flying to Dogwood Canyon Heliport? Find the distance to fly.

From to MU01

Sunrise and sunset
Times for 06-Jun-2020
 Local
(UTC-5)
 Zulu
(UTC)
Morning civil twilight05:2610:26
Sunrise05:5710:57
Sunset20:2901:29
Evening civil twilight20:5901:59

Current date and time
Zulu (UTC)  06-Jun-2020 07:59:55
Local (UTC-5)  06-Jun-2020 02:59:55
 
METAR
KFWB 
12nm N 
060735Z AUTO 00000KT 10SM CLR 24/24 A3000 RMK AO2
KBBG 
13nm E 
060735Z AUTO 00000KT 10SM FEW048 22/22 A3001 RMK AO2 PWINO PNO
KHRO 
20nm SE 
060753Z AUTO 00000KT 4SM BR CLR 23/22 A3000 RMK AO2 SLP142 T02280217
TAF
KBBG 
13nm E 
060520Z 0606/0706 00000KT P6SM SKC FM060900 VRB03KT 5SM BR FEW200 FM061300 12005KT P6SM FEW200
NOTAMs
Click for the latest NOTAMs
NOTAMs are issued by the DoD/FAA and will open in a separate window not controlled by AirNav.

 

 
 

Would you like to see your business listed on this page?

 If your business provides an interesting product or service to pilots, flight crews, aircraft, or users of the Dogwood Canyon Heliport, you should consider listing it here.  To start the listing process, click on the button below
 
Add a business
 

Other Pages about Dogwood Canyon Heliport

Update a link
 
Copyright © AirNav, LLC. All rights reserved. Privacy Policy  Contact